Regional Weather Roundup
Issued by NWS

Home | Current Version | Previous Version | Text Only | Print | Product List | Glossary Off
Versions: 1 2 3 4 5 6 7 8 9 10 11 12 13 14 15 16 17 18 19 20 21 22 23 24 25 26 27 28 29 30 31 32 33 34 35 36 37 38 39 40 41 42 43 44 45 46 47 48 49

000
ASUS45 KSLC 301210
RWRUT

UTAH REGIONAL WEATHER ROUNDUP
NATIONAL WEATHER SERVICE SALT LAKE CITY UT
600 AM MDT SAT AUG 30 2014

UTZ001>011-023>025-301300-

NORTHERN UTAH

CITY           SKY/WX    TMP DP  RH WIND       PRES   REMARKS
HILL AFB       CLOUDY    67  43  42 SE9       29.95S
LOGAN          CLEAR     52  50  93 NE7       29.92R
OGDEN          MOCLDY    67  43  41 S12       29.92S
PROVO AIRPORT  MOCLDY    64  46  52 SE8       29.99R
SALT LAKE CITY MOCLDY    74  42  31 S12       29.91R
VERNAL         PTCLDY    53  45  74 W5        30.10S
WENDOVER       MOCLDY    72  36  26 NW9       29.91S
HEBER CITY     PTCLDY    46  45  93 CALM      30.07R
WEST JORDAN    CLEAR     73  48  40 S12       29.96R

$$

UTZ012>022-026-027-301300-

SOUTHERN UTAH

CITY           SKY/WX    TMP DP  RH WIND       PRES   REMARKS
BRYCE CANYON   MOCLDY    46  39  76 W5        30.26S
CEDAR CITY     MOCLDY    60  35  39 S8        30.09S
MILFORD        CLOUDY    66  37  34 SW8       30.02S
MOAB/CYNLANDS  CLEAR     60  44  55 S3        30.03S
PRICE          CLEAR     57  41  55 N8        30.12S
ST GEORGE      MOSUNNY   68  37  32 S6        29.93S

$$

REGIONAL REPORTS     COLORADO/ARIZONA

CITY           SKY/WX    TMP DP  RH WIND       PRES   REMARKS
CRAIG, CO      CLEAR     45  42  89 CALM      30.17S
GRAND JUNCTION PTCLDY    58  49  72 SE10      30.09S
RIFLE          CLEAR     50  46  86 E3        30.17R
MONTROSE       CLEAR     52  44  74 S5        30.19R
CORTEZ         CLEAR     45  42  89 NE3       30.19R
PAGE, AZ       PTCLDY    69  34  27 CALM      30.03R
GRAND CANYON     N/A    N/A N/A N/A MISG        N/A
KINGMAN        CLEAR     76  34  21 S7        29.96R
FLAGSTAFF      PTCLDY    45  39  79 CALM      30.26S

$$

REGIONAL REPORTS    NEVADA/IDAHO/WYOMING

CITY           SKY/WX    TMP DP  RH WIND       PRES   REMARKS
LAS VEGAS, NV  PTCLDY    82  31  15 S7        29.78R
ELY            CLOUDY    59  35  40 SW7       30.09F
ELKO           PTCLDY    57  35  43 CALM      30.01R
POCATELLO, ID  CLEAR     55  47  74 SW7       29.88S
BURLEY         CLEAR     57  45  64 S5        29.86R
EVANSTON, WY   CLEAR     53  40  61 SW13      30.10F
ROCK SPRINGS   PTCLDY    55  37  50 S9        30.10

$$



USA.gov is the U.S. government's official web portal to all federal, state and local government web resources and services.